Fryeburg, ME

3:57 PM EDT on August 29, 2016 (GMT -0400)
Eastern Slopes Regional

Weather History for KIZG - January, 2012

Change the Weather History Date:

Sunday, January 1, 2012

  Actual Average Record
Temperature  
Mean Temperature 32 °F -  
Max Temperature 46 °F 30 °F 50 °F (2011)
Min Temperature 19 °F 10 °F -18 °F (1998)
Degree Days  
Heating Degree Days 32    
Moisture  
Dew Point 33 °F    
Average Humidity 86    
Maximum Humidity 97    
Minimum Humidity 71    
Precipitation  
Precipitation 0.06 in - - ()
Sea Level Pressure  
Sea Level Pressure 29.88 in    
Wind  
Wind Speed 1 mph (SSE)    
Max Wind Speed 6 mph    
Max Gust Speed -    
Visibility 10 miles    
Events Rain    
Averages and records for this station are not official NWS values.
T = Trace of Precipitation, MM = Missing Value Source: NWS Daily Summary

Daily Weather History Graph

Daily Weather History Graph

Search for Another Location

Airport or City:

Trip Planner

Search our weather history database for the weather conditions in past years. The results will help you decide how hot, cold, wet, or windy it might be!

Date:

Astronomy

Jan. 01, 2012 Rise Set
Actual Time 7:18 AM EST 4:16 PM EST
Civil Twilight 6:45 AM EST 4:48 PM EST
Nautical Twilight 6:09 AM EST 5:25 PM EST
Astronomical Twilight 5:34 AM EST 6:00 PM EST
Moon 11:10 AM EST (1/1) 12:02 AM EST (1/1)
Length of Visible Light 10h 03m
Length of Day
8h 57m
First Quarter, 54% of the Moon is Illuminated
Jan 1
First Quarter
Jan 9
Full
Jan 16
Last Quarter
Jan 23
New
Jan 30
First Quarter

Hourly Weather History & Observations

Time (EST) Temp. Windchill Dew Point Humidity Pressure Visibility Wind Dir Wind Speed Gust Speed Precip Events Conditions
12:54 AM 24.1 °F - 23.0 °F 96% 29.89 in 10.0 mi Calm Calm - N/A   Partly Cloudy
1:11 AM 24.8 °F - 23.0 °F 93% 29.88 in 10.0 mi Calm Calm - N/A   Scattered Clouds
1:20 AM 24.8 °F - 23.0 °F 93% 29.87 in 10.0 mi Calm Calm - N/A   Mostly Cloudy
4:54 AM 19.9 °F - 19.0 °F 96% 29.96 in 10.0 mi Calm Calm - N/A   Clear
5:54 AM 19.9 °F - 19.0 °F 96% 29.99 in 10.0 mi Calm Calm - N/A   Clear
6:54 AM 21.9 °F 17.2 °F 21.0 °F 96% 30.00 in 10.0 mi NW 3.5 mph - N/A   Clear
7:54 AM 21.0 °F - 19.0 °F 92% 30.02 in 10.0 mi Calm Calm - N/A   Clear
8:54 AM 28.0 °F - 27.0 °F 96% 30.04 in 10.0 mi Calm Calm - N/A   Clear
10:54 AM 37.9 °F - 36.0 °F 93% 30.00 in 10.0 mi Calm Calm - N/A   Clear
11:54 AM 43.0 °F - 37.9 °F 82% 29.98 in 10.0 mi Calm Calm - N/A   Clear
1:49 PM 46.4 °F - 37.4 °F 71% 29.89 in 10.0 mi Calm Calm - N/A   Mostly Cloudy
1:54 PM 46.0 °F - 37.0 °F 71% 29.91 in 10.0 mi Calm Calm - N/A   Mostly Cloudy
2:09 PM 44.6 °F 41.4 °F 37.4 °F 76% 29.89 in 10.0 mi South 5.8 mph - N/A   Scattered Clouds
2:22 PM 44.6 °F - 37.4 °F 76% 29.89 in 10.0 mi Calm Calm - N/A   Mostly Cloudy
3:01 PM 46.4 °F - 37.4 °F 71% 29.87 in 10.0 mi Calm Calm - N/A   Scattered Clouds
3:24 PM 44.6 °F 41.4 °F 37.4 °F 76% 29.87 in 10.0 mi SE 5.8 mph - N/A   Mostly Cloudy
3:54 PM 44.1 °F - 37.9 °F 79% 29.90 in 10.0 mi Calm Calm - N/A   Overcast
4:54 PM 42.1 °F 39.2 °F 36.0 °F 79% 29.86 in 10.0 mi SSE 4.6 mph - N/A   Overcast
5:54 PM 41.0 °F 37.1 °F 36.0 °F 82% 29.84 in 10.0 mi SE 5.8 mph - N/A   Overcast
6:27 PM 41.0 °F 39.0 °F 37.4 °F 87% 29.83 in 10.0 mi SE 3.5 mph - N/A   Overcast
6:54 PM 41.0 °F 39.0 °F 36.0 °F 82% 29.83 in 10.0 mi Variable 3.5 mph - N/A   Overcast
7:12 PM 41.0 °F - 37.4 °F 87% 29.81 in 10.0 mi Calm Calm - N/A   Overcast
7:35 PM 41.0 °F - 37.4 °F 87% 29.79 in 10.0 mi Calm Calm - N/A   Overcast
7:54 PM 41.0 °F 37.1 °F 37.0 °F 86% 29.78 in 10.0 mi SE 5.8 mph - N/A   Overcast
8:54 PM 41.0 °F 38.0 °F 37.9 °F 89% 29.74 in 10.0 mi SSE 4.6 mph - N/A   Overcast
9:54 PM 41.0 °F 39.0 °F 37.9 °F 89% 29.70 in 8.0 mi SSE 3.5 mph - 0.01 in Rain Light Rain
10:54 PM 39.9 °F 35.8 °F 39.0 °F 97% 29.67 in 5.0 mi South 5.8 mph - 0.05 in Rain Light Rain